GOES 4 [-]

Last updated on Fri Dec 29 2023 00:02:21 GMT+0000 (Coordinated Universal Time)

1 11964U 80074A 23361.98082133 .00000106 00000+0 00000+0 0 9994 2 11964 9.9505 310.1666 0031073 87.0581 109.5490 0.99227272118678
UTC large
Height (km)
Speed (km/s)
/
Latitude / Longitude
Inclination (degrees)
Orbital Period (minutes)
Azimuth
Elevation
Range (km)
Doppler Factor

Next 0 passes for location: London (51.5072 / 0.1276)

Sorry there are no passes over London.